This demonstration page uses our WeatherBlox Daily Observations layout. Learn more.

Left ArrowRight Arrow

34.16533, -84.80231

Hourly Observations for March 31, 2021

Temp ( °F °C ) Dew Point ( °F °C ) Humidity (%) Winds ( mph kmh ) Pressure ( in mb ) Visibility ( mi km ) Precip ( " mm )
12:53 am 00:53 Cloudy 67 19.4 57 13.9 71 71 SE 7 11 30.12 1020 10 16 0.00 0.00
1:53 am 01:53 Cloudy 65 18.3 59 15 81 81 VRB 7 11 30.10 1019 10 16 0.00 0.00
2:53 am 02:53 Cloudy 64 17.8 60 15.6 87 87 SE 8 13 30.07 1018 10 16 0.01 0.25
3:53 am 03:53 Cloudy with Light Rain 64 17.8 60 15.6 87 87 VRB 6 9 30.04 1017 10 16 0.00 0.00
4:12 am 04:12 Cloudy 65 18.3 60 15.6 84 84 SE 8 13 30.06 1018 10 16 0.00 0.00
4:53 am 04:53 Cloudy with Light Rain 65 18.3 61 16.1 87 87 SSE 5 7 30.04 1017 9 14 0.01 0.25
5:53 am 05:53 Cloudy with Light Rain 66 18.9 62 16.7 87 87 S 8 13 30.02 1017 10 16 0.01 0.25
6:53 am 06:53 Cloudy 67 19.4 63 17.2 87 87 S 7 11 30.02 1017 10 16 0.01 0.25
7:07 am 07:07 Cloudy 67 19.4 63 17.2 87 87 S 9 15 30.03 1017 10 16 0.00 0.00
7:53 am 07:53 Cloudy 68 20 63 17.2 84 84 SSE 8 13 30.01 1016 10 16 0.00 0.00
8:23 am 08:23 Cloudy with Rain 67 19.4 63 17.2 87 87 S 7 11 30.03 1017 3 4 0.06 1.52
8:32 am 08:32 Cloudy with Heavy Rain 67 19.4 63 17.2 87 87 VRB 7 11 30.04 1017 1 2 0.17 4.32
8:35 am 08:35 Cloudy with Heavy Rain 67 19.4 63 17.2 87 87 VRB 3 6 30.04 1017 1 1 0.23 5.84
8:45 am 08:45 Cloudy with Rain 66 18.9 62 16.7 87 87 VRB 7 11 30.06 1018 3 4 0.26 6.60
8:47 am 08:47 Cloudy with Rain 66 19 63 17 88 88 SW 8 13 30.05 1018 3 5 0.26 6.60
8:53 am 08:53 Cloudy with Rain 65 18.3 62 16.7 90 90 VRB 5 7 30.05 1018 3 5 0.28 7.11
9:09 am 09:09 Cloudy with Rain 64 17.8 61 16.1 90 90 Calm 30.09 1019 3 5 0.05 1.27
9:17 am 09:17 Cloudy with Rain 64 17.8 61 16.1 90 90 VRB 3 6 30.09 1019 3 4 0.08 2.03
9:40 am 09:40 Cloudy with Rain 64 17.8 61 16.1 90 90 Calm 30.07 1018 3 4 0.17 4.32
9:44 am 09:44 Cloudy with Light Rain 64 17.8 61 16.1 90 90 SSW 3 6 30.07 1018 4 6 0.17 4.32
9:53 am 09:53 Cloudy with Light Rain 64 17.8 62 16.7 93 93 Calm 30.05 1018 10 16 0.17 4.32
10:53 am 10:53 Cloudy with Rain 65 18.3 62 16.7 90 90 SSE 3 6 30.04 1017 3 5 0.11 2.79
11:01 am 11:01 Cloudy with Rain 65 18.3 62 16.7 90 90 ESE 3 6 30.05 1017 3 4 0.03 0.76
11:09 am 11:09 Cloudy with Rain 65 18.3 62 16.7 90 90 SSE 5 7 30.06 1018 3 5 0.07 1.78
11:14 am 11:14 Cloudy with Heavy Rain 64 17.8 62 16.7 93 93 S 3 6 30.07 1018 2 3 0.11 2.79
11:24 am 11:24 Cloudy with Strong Thunderstorms 64 17.8 61 16.1 90 90 S 3 6 30.07 1018 1 2 0.25 6.35
11:39 am 11:39 Cloudy with Nearby Thunderstorms 64 17.8 62 16.7 93 93 Calm 30.08 1019 2 3 0.36 9.14
11:44 am 11:44 Cloudy with Heavy Rain 64 17.8 62 16.7 93 93 Calm 30.07 1018 1 1 0.47 11.94
11:53 am 11:53 Cloudy with Heavy Rain 64 17.8 62 16.7 93 93 Calm 30.07 1018 1 1 0.58 14.73
11:59 am 11:59 Cloudy with Strong Thunderstorms 64 17.8 62 16.7 93 93 Calm 30.08 1019 1 2 0.03 0.76
12:08 pm 12:08 Cloudy with Thunderstorms 64 17.8 61 16.1 90 90 SE 3 6 30.07 1018 3 5 0.06 1.52
12:25 pm 12:25 Cloudy with Rain 64 17.8 61 16.1 90 90 SSE 6 9 30.05 1018 3 5 0.12 3.05
12:53 pm 12:53 Cloudy with Light Rain 64 17.8 62 16.7 93 93 Calm 30.04 1017 7 11 0.16 4.06
1:11 pm 13:11 Cloudy with Light Rain 65 18.3 61 16.1 87 87 Calm 30.06 1018 10 16 0.00 0.00
1:53 pm 13:53 Cloudy with Light Rain 65 18.3 61 16.1 87 87 Calm 30.04 1017 9 14 0.01 0.25
2:01 pm 14:01 Cloudy with Light Rain 65 18.3 62 16.7 90 90 Calm 30.06 1018 9 14 0.00 0.00
2:11 pm 14:11 Cloudy with Light Rain 65 18.3 62 16.7 90 90 Calm 30.07 1018 6 10 0.01 0.25
2:53 pm 14:53 Cloudy with Rain 65 18.3 62 16.7 90 90 SSE 5 7 30.03 1017 4 6 0.07 1.78
3:53 pm 15:53 Cloudy with Light Rain 64 17.8 61 16.1 90 90 SE 6 9 29.97 1015 8 13 0.10 2.54
4:53 pm 16:53 Mostly Cloudy 64 17.8 61 16.1 90 90 Calm 29.98 1015 10 16 0.01 0.25
5:12 pm 17:12 Mostly Cloudy 65 18.3 62 16.7 90 90 Calm 30.00 1016 10 16 0.00 0.00
5:53 pm 17:53 Cloudy 65 18.3 62 16.7 90 90 Calm 29.98 1015 10 16 0.00 0.00
6:03 pm 18:03 Mostly Cloudy 65 18.3 62 16.7 90 90 Calm 30.00 1016 10 16 0.00 0.00
6:47 pm 18:47 Cloudy 64 18 63 17 94 94 Calm 30.02 1017 10 16 0.00 0.00
6:53 pm 18:53 Cloudy with Light Rain 63 17.2 59 15 87 87 N 15 24 30.01 1016 5 8 0.01 0.25
7:19 pm 19:19 Cloudy with Light Rain 56 13.3 52 11.1 87 87 NNW 8 13 30.09 1019 7 11 0.01 0.25
7:34 pm 19:34 Cloudy with Mist and Fog 54 12.2 51 10.6 90 90 VRB 6 9 30.11 1020 5 8 0.01 0.25
7:51 pm 19:51 Cloudy with Light Rain 52 11 48 9 88 88 N 9 15 30.14 1021 3 4 0.02 0.51
7:53 pm 19:53 Cloudy with Light Rain 52 11.1 49 9.4 89 89 N 13 20 30.11 1020 3 4 0.02 0.51
8:00 pm 20:00 Cloudy with Light Rain 51 10.6 47 8.3 86 86 N 13 20 30.15 1021 4 6 0.00 0.00
8:05 pm 20:05 Cloudy with Mist and Fog 50 10 46 7.8 86 86 NNW 13 20 30.15 1021 5 8 0.00 0.00
8:10 pm 20:10 Cloudy with Mist and Fog 50 10 46 7.8 86 86 NNW 9 15 30.16 1021 6 10 0.00 0.00
8:31 pm 20:31 Cloudy 49 9.4 44 6.7 83 83 NNW 9 15 30.17 1022 10 16 0.00 0.00
8:43 pm 20:43 Cloudy 49 9.4 45 7.2 86 86 NNW 7 11 30.18 1022 10 16 0.00 0.00
8:53 pm 20:53 Cloudy 49 9.4 43 6.1 80 80 VRB 7 11 30.15 1021 10 16 0.00 0.00
9:04 pm 21:04 Cloudy 49 9.4 42 5.6 77 77 VRB 6 9 30.19 1022 10 16 0.00 0.00
9:53 pm 21:53 Cloudy 48 8.9 40 4.4 74 74 undefined N/A 30.17 1022 10 16 0.00 0.00
10:53 pm 22:53 Cloudy 47 8.3 38 3.3 71 71 VRB 7 11 30.20 1023 10 16 0.00 0.00
11:53 pm 23:53 Cloudy 46 7.8 36 2.2 68 68 NNW 7 11 30.20 1023 10 16 0.00 0.00

Powered by AerisWeather